Tracking 19832 objects as of 24-Aug-2019
HD Live streaming from Space Station
objects crossing your sky now

CICERO 10

Track CICERO 10 now!
10-day predictions


NORAD ID: 43690
Int'l Code: 2018-088A
Perigee: 504.3 km
Apogee: 523.3 km
Inclination: 85.0 °
Period: 94.8 minutes
Semi major axis: 6884 km
RCS: Unknown
Launch date: November 11, 2018
Source: United States (US)
Launch site: Rocket Lab Launch Complex (RLLC)
aabbcc
Your satellite tracking list
Your tracking list is empty




NASA's NSSDC Master Catalog

Two Line Element Set (TLE):
1 43690U 18088A   19235.93461142 +.00000422 +00000-0 +17870-4 0  9992
2 43690 085.0358 274.8982 0013825 333.3009 026.7518 15.19732752043416
Source of the keplerian elements: AFSPC